Clermont County, Batavia, OH

9:15 PM EST on December 09, 2019 (GMT -0500)
Clermont County, Batavia

Weather History for KI69 - September, 2019

Change the Weather History Date:

Sunday, September 8, 2019

  Actual Average (KLUK) Record (KLUK)
Temperature  
Mean Temperature 66 °F -  
Max Temperature 76 °F 82 °F 96 °F (2002)
Min Temperature 56 °F 60 °F 43 °F (1951)
Cooling Degree Days 1    
Growing Degree Days 16 (Base 50)    
Moisture  
Dew Point 59 °F    
Average Humidity 80    
Maximum Humidity 100    
Minimum Humidity 53    
Precipitation  
Precipitation 0.00 in - - ()
Sea Level Pressure  
Sea Level Pressure 30.10 in    
Wind  
Wind Speed 0 mph (ENE)    
Max Wind Speed 5 mph    
Max Gust Speed -    
Visibility 10 miles    
Events      
Averages and records for this station are not official NWS values.
T = Trace of Precipitation, MM = Missing Value Source: NWS Daily Summary

Daily Weather History Graph

Daily Weather History Graph

Search for Another Location

Airport or City:

Astronomy

Sep. 08, 2019 Rise Set
Actual Time 7:11 AM EDT 7:56 PM EDT
Civil Twilight 6:44 AM EDT 8:23 PM EDT
Nautical Twilight 6:12 AM EDT 8:55 PM EDT
Astronomical Twilight 5:39 AM EDT 9:28 PM EDT
Moon 5:02 PM EDT (9/8) 1:52 AM EDT (9/8)
Length of Visible Light 13h 39m
Length of Day
12h 45m
Waxing Gibbous, 75% of the Moon is Illuminated
Sep 8
Waxing Gibbous
Sep 14
Full
Sep 21
Last Quarter
Sep 28
New
Oct 5
First Quarter

Hourly Weather History & Observations

Time (EDT) Temp. Dew Point Humidity Pressure Visibility Wind Dir Wind Speed Gust Speed Precip Events Conditions
12:15 AM 62.6 °F 59.9 °F 91% 30.07 in 10.0 mi Calm Calm - N/A   Clear
12:38 AM 61.3 °F 59.5 °F 94% 30.07 in 10.0 mi Calm Calm - N/A   Clear
12:56 AM 61.7 °F 59.2 °F 91% 30.07 in 10.0 mi Calm Calm - N/A   Clear
1:15 AM 61.7 °F 59.2 °F 91% 30.07 in 10.0 mi Calm Calm - N/A   Clear
1:35 AM 59.5 °F 58.6 °F 97% 30.06 in 10.0 mi Calm Calm - N/A   Clear
1:55 AM 60.4 °F 59.0 °F 95% 30.06 in 10.0 mi Calm Calm - N/A   Clear
2:18 AM 59.9 °F 58.5 °F 95% 30.06 in 10.0 mi Calm Calm - N/A   Clear
2:36 AM 59.9 °F 58.6 °F 96% 30.06 in 10.0 mi Calm Calm - N/A   Clear
2:55 AM 59.4 °F 58.1 °F 96% 30.06 in 10.0 mi Calm Calm - N/A   Clear
3:16 AM 58.6 °F 57.6 °F 96% 30.05 in 10.0 mi Calm Calm - N/A   Clear
3:35 AM 58.1 °F 57.7 °F 99% 30.05 in 10.0 mi Calm Calm - N/A   Clear
3:58 AM 57.7 °F 57.4 °F 99% 30.05 in 10.0 mi Calm Calm - N/A   Clear
4:16 AM 58.3 °F 57.4 °F 97% 30.05 in 10.0 mi Calm Calm - N/A   Clear
4:35 AM 57.6 °F 56.7 °F 97% 30.05 in 10.0 mi Calm Calm - N/A   Clear
4:55 AM 57.2 °F 57.0 °F 99% 30.06 in 10.0 mi Calm Calm - N/A   Clear
5:15 AM 57.2 °F 56.7 °F 98% 30.06 in 10.0 mi Calm Calm - N/A   Clear
5:38 AM 56.3 °F 56.3 °F 100% 30.06 in 7.0 mi Calm Calm - N/A   Clear
5:56 AM 56.3 °F 56.3 °F 100% 30.06 in 10.0 mi Calm Calm - N/A   Clear
6:15 AM 56.5 °F 55.8 °F 97% 30.08 in 10.0 mi Calm Calm - N/A   Clear
6:35 AM 56.3 °F 55.9 °F 99% 30.09 in 10.0 mi Calm Calm - N/A   Clear
7:00 AM 56.3 °F 55.9 °F 99% 30.09 in 10.0 mi Calm Calm - N/A   Clear
7:18 AM 56.8 °F 56.5 °F 99% 30.09 in 10.0 mi Calm Calm - N/A   Clear
7:36 AM 57.0 °F 56.5 °F 98% 30.10 in 10.0 mi Calm Calm - N/A   Clear
7:55 AM 57.4 °F 57.2 °F 99% 30.10 in 10.0 mi Calm Calm - N/A   Mostly Cloudy
8:15 AM 57.7 °F 57.2 °F 98% 30.10 in 10.0 mi Calm Calm - N/A   Mostly Cloudy
8:39 AM 59.4 °F 58.6 °F 97% 30.10 in 10.0 mi Calm Calm - N/A   Scattered Clouds
8:58 AM 61.0 °F 59.4 °F 94% 30.10 in 10.0 mi Calm Calm - N/A   Clear
9:16 AM 63.1 °F 59.4 °F 87% 30.11 in 10.0 mi Calm Calm - N/A   Clear
9:35 AM 65.7 °F 59.9 °F 82% 30.12 in 10.0 mi Calm Calm - N/A   Scattered Clouds
9:55 AM 66.7 °F 60.1 °F 79% 30.13 in 10.0 mi Calm Calm - N/A   Mostly Cloudy
10:19 AM 66.7 °F 61.3 °F 83% 30.12 in 10.0 mi NNE 4.6 mph - N/A   Mostly Cloudy
10:38 AM 68.4 °F 59.5 °F 73% 30.12 in 10.0 mi Calm Calm - N/A   Scattered Clouds
10:56 AM 69.6 °F 58.8 °F 68% 30.13 in 10.0 mi Calm Calm - N/A   Scattered Clouds
11:15 AM 70.3 °F 59.0 °F 67% 30.13 in 10.0 mi Calm Calm - N/A   Scattered Clouds
11:35 AM 72.3 °F 59.0 °F 63% 30.12 in 10.0 mi East 3.5 mph - N/A   Clear
11:59 AM 73.9 °F 58.6 °F 59% 30.11 in 10.0 mi Calm Calm - N/A   Clear
12:17 PM 74.7 °F 57.7 °F 55% 30.09 in 10.0 mi East 3.5 mph - N/A   Clear
12:36 PM 75.0 °F 58.1 °F 56% 30.11 in 10.0 mi Calm Calm - N/A   Clear
12:55 PM 75.7 °F 59.0 °F 56% 30.10 in 10.0 mi North 3.5 mph - N/A   Clear
1:15 PM 76.5 °F 59.7 °F 56% 30.10 in 10.0 mi ESE 3.5 mph - N/A   Clear
1:39 PM 76.5 °F 59.2 °F 55% 30.10 in 10.0 mi Calm Calm - N/A   Clear
1:57 PM 76.5 °F 58.3 °F 53% 30.10 in 10.0 mi Calm Calm - N/A   Mostly Cloudy
2:15 PM 75.4 °F 58.1 °F 55% 30.10 in 5.0 mi Calm Calm - N/A   Haze
2:35 PM 75.7 °F 58.3 °F 55% 30.11 in 10.0 mi Calm Calm - N/A   Scattered Clouds
2:55 PM 75.9 °F 59.4 °F 56% 30.12 in 10.0 mi Calm Calm - N/A   Mostly Cloudy
3:19 PM 75.0 °F 60.4 °F 60% 30.11 in 10.0 mi NE 3.5 mph - N/A   Scattered Clouds
3:37 PM 75.2 °F 60.6 °F 60% 30.11 in 10.0 mi Calm Calm - N/A   Scattered Clouds
3:55 PM 74.5 °F 60.8 °F 62% 30.11 in 10.0 mi Calm Calm - N/A   Mostly Cloudy
4:15 PM 74.3 °F 60.8 °F 63% 30.11 in 10.0 mi Calm Calm - N/A   Mostly Cloudy
4:35 PM 74.7 °F 60.4 °F 61% 30.10 in 10.0 mi ENE 3.5 mph - N/A   Mostly Cloudy
4:59 PM 74.3 °F 61.2 °F 63% 30.11 in 10.0 mi Calm Calm - N/A   Scattered Clouds
5:17 PM 74.3 °F 61.0 °F 63% 30.11 in 10.0 mi NNE 4.6 mph - N/A   Scattered Clouds
5:35 PM 73.4 °F 60.3 °F 63% 30.10 in 10.0 mi Calm Calm - N/A   Overcast
5:55 PM 73.0 °F 60.8 °F 65% 30.08 in 10.0 mi Calm Calm - N/A   Overcast
6:15 PM 72.7 °F 61.9 °F 69% 30.09 in 10.0 mi Calm Calm - N/A   Overcast
6:39 PM 73.4 °F 61.7 °F 67% 30.09 in 10.0 mi Calm Calm - N/A   Overcast
6:57 PM 73.4 °F 61.5 °F 66% 30.09 in 10.0 mi East 4.6 mph - N/A   Scattered Clouds
7:15 PM 73.4 °F 60.8 °F 65% 30.09 in 10.0 mi Calm Calm - N/A   Clear
7:35 PM 72.5 °F 60.8 °F 67% 30.10 in 10.0 mi Calm Calm - N/A   Clear
7:55 PM 71.4 °F 60.8 °F 69% 30.10 in 10.0 mi Calm Calm - N/A   Clear
8:18 PM 68.9 °F 61.5 °F 77% 30.10 in 10.0 mi Calm Calm - N/A   Clear
8:37 PM 69.6 °F 61.0 °F 74% 30.11 in 10.0 mi Calm Calm - N/A   Clear
8:55 PM 68.2 °F 61.9 °F 80% 30.11 in 10.0 mi Calm Calm - N/A   Clear
9:15 PM 66.7 °F 61.7 °F 84% 30.12 in 10.0 mi Calm Calm - N/A   Clear
9:35 PM 68.0 °F 61.3 °F 79% 30.12 in 10.0 mi Calm Calm - N/A   Clear
9:58 PM 67.6 °F 61.7 °F 81% 30.14 in 10.0 mi Calm Calm - N/A   Mostly Cloudy
10:17 PM 67.3 °F 61.5 °F 82% 30.14 in 10.0 mi Calm Calm - N/A   Mostly Cloudy
10:35 PM 64.9 °F 61.9 °F 90% 30.14 in 10.0 mi Calm Calm - N/A   Mostly Cloudy
10:55 PM 64.4 °F 61.9 °F 92% 30.14 in 10.0 mi Calm Calm - N/A   Overcast
11:15 PM 64.9 °F 61.9 °F 90% 30.15 in 10.0 mi NNE 4.6 mph - N/A   Mostly Cloudy
11:38 PM 65.1 °F 61.5 °F 88% 30.16 in 10.0 mi Calm Calm - N/A   Scattered Clouds
11:56 PM 64.8 °F 61.7 °F 90% 30.16 in 10.0 mi Calm Calm - N/A   Clear